Precipitable_Water
0.43 0.43 0.41 0.40 0.39 0.36 0.47 0.43 0.40 0.38 0.37 0.36 0.37 0.36 0.33 0.31 0.29 0.31 0.34 0.36 0.36 0.34 0.35 0.35 0.32 0.40 0.35 0.19 0.19 0.29 0.28 0.24 0.22 0.20 0.18 0.18 0.20 0.23 0.24 0.30 0.31 0.28 0.31 0.34 0.36 0.34 0.29
0.47 0.46 0.43 0.41 0.37 0.36 0.41 0.41 0.40 0.38 0.36 0.36 0.36 0.33 0.31 0.29 0.29 0.34 0.35 0.36 0.35 0.35 0.37 0.36 0.37 0.40 0.24 0.12 0.29 0.28 0.25 0.21 0.18 0.18 0.18 0.18 0.17 0.18 0.19 0.20 0.23 0.31 0.31 0.32 0.33 0.32 0.31
0.53 0.47 0.46 0.42 0.37 0.39 0.39 0.39 0.37 0.35 0.36 0.36 0.35 0.33 0.30 0.28 0.33 0.35 0.34 0.35 0.35 0.36 0.40 0.40 0.40 0.32 0.18 0.17 0.27 0.27 0.25 0.21 0.19 0.17 0.14 0.19 0.23 0.14 0.14 0.12 0.22 0.23 0.17 0.17 0.19 0.26 0.27
0.44 0.48 0.45 0.41 0.38 0.38 0.40 0.38 0.35 0.35 0.35 0.34 0.33 0.31 0.29 0.32 0.35 0.34 0.34 0.33 0.36 0.38 0.40 0.42 0.43 0.31 0.15 0.29 0.28 0.26 0.26 0.21 0.22 0.19 0.16 0.19 0.21 0.17 0.13 0.14 0.10 0.09 0.11 0.09 0.14 0.14 0.22
0.45 0.45 0.44 0.44 0.40 0.39 0.40 0.38 0.36 0.36 0.34 0.33 0.33 0.30 0.28 0.34 0.35 0.35 0.36 0.36 0.36 0.37 0.40 0.42 0.34 0.23 0.13 0.28 0.23 0.27 0.27 0.20 0.20 0.19 0.18 0.20 0.20 0.15 0.13 0.09 0.06 0.09 0.06 0.09 0.11 0.17 0.17
0.47 0.48 0.46 0.44 0.43 0.41 0.40 0.39 0.38 0.37 0.35 0.33 0.31 0.30 0.29 0.37 0.37 0.36 0.39 0.35 0.35 0.35 0.32 0.32 0.28 0.14 0.20 0.19 0.24 0.26 0.27 0.24 0.18 0.16 0.14 0.12 0.13 0.11 0.11 0.09 0.05 0.07 0.08 0.10 0.12 0.15 0.14
0.44 0.46 0.46 0.45 0.44 0.43 0.42 0.40 0.39 0.37 0.35 0.33 0.31 0.30 0.32 0.40 0.41 0.36 0.35 0.31 0.17 0.16 0.22 0.17 0.18 0.18 0.20 0.25 0.29 0.25 0.25 0.21 0.20 0.14 0.10 0.13 0.08 0.07 0.09 0.11 0.11 0.11 0.10 0.10 0.12 0.16 0.15
0.45 0.44 0.45 0.44 0.44 0.44 0.44 0.41 0.39 0.36 0.36 0.34 0.31 0.31 0.34 0.42 0.44 0.38 0.31 0.21 0.26 0.30 0.15 0.23 0.22 0.21 0.23 0.25 0.18 0.22 0.27 0.16 0.16 0.10 0.14 0.11 0.08 0.13 0.14 0.14 0.11 0.10 0.09 0.09 0.13 0.16 0.18
0.47 0.47 0.46 0.45 0.44 0.46 0.45 0.44 0.40 0.37 0.37 0.34 0.32 0.32 0.36 0.43 0.44 0.36 0.29 0.30 0.45 0.41 0.17 0.18 0.21 0.18 0.19 0.23 0.19 0.19 0.24 0.19 0.16 0.12 0.13 0.10 0.12 0.17 0.16 0.14 0.13 0.12 0.10 0.10 0.10 0.15 0.20
0.50 0.49 0.48 0.47 0.45 0.45 0.46 0.44 0.42 0.39 0.38 0.33 0.33 0.35 0.40 0.38 0.33 0.35 0.27 0.40 0.47 0.46 0.09 0.12 0.16 0.18 0.17 0.20 0.17 0.23 0.26 0.20 0.18 0.13 0.15 0.13 0.16 0.16 0.16 0.14 0.15 0.10 0.16 0.14 0.12 0.14 0.12
0.52 0.50 0.51 0.48 0.46 0.44 0.44 0.45 0.42 0.40 0.36 0.34 0.34 0.37 0.43 0.40 0.33 0.27 0.37 0.50 0.53 0.38 0.04 0.13 0.16 0.23 0.20 0.15 0.16 0.20 0.27 0.22 0.15 0.16 0.16 0.11 0.14 0.15 0.14 0.15 0.18 0.14 0.20 0.16 0.15 0.15 0.17
0.54 0.53 0.50 0.50 0.48 0.47 0.44 0.44 0.42 0.39 0.36 0.34 0.38 0.40 0.41 0.41 0.38 0.37 0.51 0.55 0.46 0.10 0.05 0.12 0.16 0.14 0.16 0.18 0.18 0.22 0.26 0.28 0.27 0.19 0.18 0.16 0.23 0.20 0.19 0.18 0.19 0.23 0.21 0.19 0.18 0.16 0.11
0.56 0.53 0.51 0.51 0.49 0.49 0.46 0.43 0.40 0.41 0.38 0.38 0.41 0.41 0.40 0.40 0.24 0.49 0.55 0.41 0.10 0.06 0.15 0.11 0.12 0.16 0.16 0.16 0.17 0.20 0.21 0.19 0.17 0.11 0.10 0.15 0.16 0.21 0.23 0.16 0.18 0.19 0.19 0.13 0.11 0.14 0.14
0.57 0.55 0.54 0.52 0.51 0.48 0.48 0.45 0.42 0.40 0.39 0.41 0.42 0.43 0.41 0.39 0.46 0.56 0.47 0.19 0.07 0.12 0.13 0.16 0.14 0.16 0.14 0.16 0.16 0.18 0.19 0.18 0.25 0.21 0.15 0.11 0.08 0.15 0.22 0.17 0.17 0.19 0.22 0.17 0.14 0.13 0.16
0.53 0.55 0.55 0.52 0.52 0.50 0.48 0.47 0.44 0.41 0.41 0.43 0.45 0.44 0.40 0.40 0.52 0.55 0.28 0.10 0.10 0.14 0.16 0.13 0.16 0.13 0.14 0.15 0.15 0.15 0.21 0.22 0.25 0.22 0.13 0.13 0.11 0.20 0.19 0.20 0.22 0.20 0.19 0.30 0.24 0.30 0.23
0.54 0.54 0.58 0.52 0.50 0.49 0.49 0.49 0.47 0.42 0.42 0.45 0.40 0.39 0.37 0.43 0.53 0.41 0.19 0.14 0.17 0.20 0.18 0.17 0.13 0.15 0.11 0.13 0.14 0.12 0.18 0.25 0.21 0.23 0.24 0.19 0.09 0.17 0.14 0.22 0.30 0.28 0.31 0.22 0.26 0.16 0.14
0.55 0.53 0.59 0.55 0.50 0.49 0.50 0.49 0.47 0.44 0.44 0.48 0.40 0.31 0.44 0.45 0.48 0.26 0.14 0.17 0.21 0.23 0.21 0.18 0.16 0.14 0.15 0.14 0.15 0.13 0.16 0.20 0.20 0.19 0.22 0.18 0.15 0.11 0.16 0.12 0.17 0.23 0.23 0.27 0.30 0.27 0.20
0.58 0.54 0.57 0.57 0.52 0.50 0.49 0.49 0.48 0.45 0.45 0.45 0.39 0.23 0.46 0.45 0.22 0.24 0.18 0.23 0.26 0.22 0.22 0.19 0.19 0.18 0.17 0.16 0.14 0.14 0.15 0.18 0.22 0.20 0.15 0.19 0.14 0.10 0.10 0.17 0.26 0.28 0.22 0.24 0.21 0.19 0.25
0.60 0.57 0.54 0.58 0.55 0.50 0.49 0.48 0.47 0.44 0.47 0.43 0.31 0.30 0.44 0.39 0.16 0.18 0.25 0.25 0.26 0.21 0.20 0.19 0.19 0.21 0.21 0.17 0.14 0.18 0.19 0.24 0.24 0.21 0.17 0.17 0.14 0.08 0.10 0.21 0.25 0.21 0.24 0.22 0.24 0.28 0.22
0.61 0.59 0.56 0.55 0.56 0.54 0.50 0.48 0.46 0.43 0.48 0.44 0.32 0.19 0.27 0.26 0.26 0.18 0.19 0.20 0.19 0.23 0.20 0.21 0.20 0.21 0.19 0.18 0.20 0.17 0.18 0.22 0.23 0.21 0.22 0.21 0.15 0.10 0.06 0.08 0.15 0.12 0.14 0.15 0.17 0.15 0.16
0.63 0.60 0.58 0.56 0.56 0.54 0.52 0.49 0.46 0.42 0.48 0.44 0.31 0.18 0.23 0.14 0.17 0.19 0.19 0.19 0.17 0.16 0.21 0.21 0.19 0.19 0.19 0.16 0.18 0.17 0.19 0.19 0.20 0.22 0.21 0.18 0.12 0.15 0.15 0.16 0.17 0.15 0.13 0.12 0.11 0.11 0.10
0.64 0.60 0.62 0.56 0.56 0.55 0.53 0.50 0.48 0.44 0.48 0.37 0.26 0.23 0.26 0.20 0.20 0.20 0.19 0.17 0.16 0.18 0.19 0.18 0.17 0.21 0.21 0.18 0.18 0.17 0.20 0.20 0.18 0.21 0.19 0.20 0.13 0.15 0.11 0.12 0.14 0.14 0.15 0.17 0.17 0.17 0.17
0.65 0.62 0.61 0.59 0.55 0.54 0.53 0.51 0.50 0.46 0.46 0.34 0.38 0.36 0.26 0.23 0.19 0.18 0.17 0.17 0.17 0.20 0.21 0.21 0.20 0.19 0.19 0.20 0.25 0.26 0.26 0.25 0.24 0.21 0.19 0.19 0.17 0.15 0.11 0.16 0.17 0.12 0.16 0.22 0.22 0.24 0.24
0.66 0.63 0.60 0.59 0.57 0.54 0.54 0.52 0.51 0.47 0.46 0.42 0.40 0.33 0.23 0.16 0.20 0.17 0.20 0.20 0.18 0.21 0.18 0.21 0.23 0.20 0.24 0.30 0.30 0.28 0.26 0.24 0.24 0.23 0.24 0.19 0.19 0.19 0.14 0.16 0.08 0.15 0.27 0.29 0.26 0.27 0.29
0.66 0.65 0.61 0.59 0.57 0.56 0.55 0.54 0.51 0.48 0.49 0.45 0.47 0.35 0.24 0.15 0.20 0.21 0.21 0.20 0.23 0.26 0.24 0.22 0.24 0.27 0.30 0.26 0.20 0.15 0.16 0.19 0.21 0.25 0.25 0.25 0.22 0.18 0.14 0.14 0.15 0.16 0.25 0.25 0.24 0.24 0.30
0.67 0.65 0.62 0.60 0.57 0.55 0.56 0.54 0.52 0.49 0.49 0.48 0.48 0.46 0.32 0.19 0.16 0.23 0.22 0.24 0.20 0.21 0.22 0.24 0.29 0.31 0.29 0.22 0.17 0.12 0.12 0.16 0.15 0.20 0.29 0.27 0.26 0.20 0.18 0.13 0.10 0.18 0.27 0.30 0.30 0.19 0.30
0.66 0.65 0.63 0.62 0.59 0.55 0.54 0.55 0.54 0.50 0.49 0.48 0.47 0.49 0.37 0.22 0.22 0.25 0.20 0.20 0.26 0.24 0.20 0.24 0.24 0.25 0.29 0.20 0.15 0.14 0.14 0.20 0.14 0.16 0.20 0.22 0.22 0.17 0.17 0.16 0.17 0.28 0.26 0.28 0.18 0.18 0.29
0.65 0.65 0.63 0.61 0.62 0.58 0.55 0.54 0.54 0.52 0.49 0.47 0.44 0.53 0.41 0.27 0.25 0.27 0.29 0.24 0.25 0.25 0.19 0.23 0.23 0.25 0.22 0.16 0.17 0.17 0.17 0.19 0.19 0.22 0.21 0.20 0.18 0.17 0.18 0.16 0.11 0.28 0.26 0.19 0.23 0.25 0.28
0.64 0.65 0.63 0.60 0.60 0.59 0.55 0.54 0.53 0.52 0.50 0.49 0.37 0.50 0.53 0.36 0.29 0.35 0.34 0.36 0.33 0.32 0.27 0.26 0.20 0.21 0.23 0.19 0.21 0.21 0.20 0.22 0.20 0.16 0.25 0.19 0.22 0.17 0.18 0.15 0.23 0.26 0.25 0.27 0.25 0.26 0.27
Wind_Speed
8 7 6 5 4 3 4 5 7 8 9 10 11 11 11 11 11 12 12 12 12 13 13 13 13 13 13 11 13 15 15 15 15 15 14 15 15 17 18 20 23 24 25 26 26 26 26
8 6 6 4 4 2 2 3 5 6 7 8 9 9 10 11 11 11 11 12 12 11 11 11 11 11 12 11 13 13 14 14 15 15 15 15 17 19 20 21 22 25 27 28 27 28 29
7 6 4 4 3 2 1 2 3 4 5 6 6 7 8 8 9 10 10 11 11 10 9 9 9 9 7 10 11 11 12 13 14 15 15 16 17 17 20 22 23 25 27 27 26 25 28
8 7 6 4 3 2 2 2 2 3 4 4 5 6 6 6 7 7 8 9 8 8 8 8 9 9 9 9 10 10 11 12 12 13 15 16 17 17 18 21 23 24 25 24 23 25 25
8 7 6 5 4 3 2 2 2 2 3 3 4 4 5 5 5 6 6 7 7 8 7 7 7 8 8 8 8 9 10 11 12 11 11 13 14 15 17 19 20 20 24 25 26 24 25
9 8 7 6 6 5 4 4 3 3 3 3 3 4 4 3 3 4 5 5 4 6 6 6 6 6 6 6 7 7 7 8 8 10 11 11 12 13 16 17 21 25 27 28 30 29 34
11 11 10 9 8 7 7 6 5 5 4 4 4 4 4 4 3 4 6 6 4 4 3 5 5 5 6 7 6 6 7 8 8 8 9 10 10 13 17 18 22 25 28 31 32 33 36
14 13 12 12 11 10 9 8 7 6 6 5 5 5 4 4 3 2 5 5 5 7 4 4 5 6 7 8 8 8 8 8 8 9 10 10 11 15 17 19 21 24 28 30 33 32 35
17 15 14 13 13 12 11 10 9 8 7 6 6 5 5 5 4 2 2 4 5 6 5 4 5 5 6 6 7 8 7 8 7 9 9 9 14 16 17 20 22 23 26 29 35 34 33
19 18 17 16 15 14 13 12 10 9 8 7 6 5 5 5 4 3 2 3 5 6 4 6 5 6 6 7 6 7 8 8 8 9 10 11 14 16 17 19 21 23 25 29 31 31 29
22 21 20 18 17 16 15 14 12 11 9 8 7 6 4 4 5 3 3 3 5 5 2 5 5 5 5 4 6 8 7 8 7 10 9 13 13 15 14 20 22 23 26 27 29 30 30
25 24 23 21 19 18 16 15 13 12 11 9 8 7 6 6 5 4 3 4 4 1 5 3 3 4 3 4 5 7 7 6 6 9 10 12 12 12 14 21 21 24 23 23 24 23 28
29 27 26 24 22 20 18 17 15 13 12 11 10 9 8 7 7 5 4 5 2 3 4 3 3 2 2 5 5 5 5 7 6 8 10 11 11 15 15 20 18 21 20 19 15 13 20
33 31 29 27 25 23 21 19 17 15 14 12 11 10 9 9 8 6 6 4 3 6 4 3 2 1 2 4 5 7 5 5 8 8 7 10 11 15 19 18 18 18 15 12 13 15 16
37 35 33 30 28 26 24 22 20 17 15 14 13 12 11 10 9 8 7 5 8 7 5 3 2 2 3 5 4 5 5 5 7 9 8 10 11 14 15 19 16 17 14 13 10 11 10
40 38 36 34 31 29 27 25 22 20 17 15 14 14 13 11 10 9 8 9 7 7 5 4 3 3 3 4 5 6 4 7 7 9 9 9 11 11 16 14 15 12 14 11 10 10 8
43 41 40 37 34 32 30 27 25 22 20 17 16 14 14 12 12 10 10 10 8 7 6 5 5 4 3 4 5 6 5 6 7 10 9 10 9 13 15 12 12 13 13 13 10 8 7
46 44 43 40 37 35 33 30 28 25 22 20 18 15 14 14 12 11 11 10 8 7 6 6 5 5 5 5 6 6 6 6 8 9 9 9 9 13 14 13 11 9 11 12 10 10 11
48 47 46 44 41 38 35 33 30 28 25 22 20 18 16 16 14 13 12 11 10 9 7 6 5 5 6 6 6 7 7 6 9 10 8 11 10 12 12 10 10 11 12 13 14 10 11
50 49 48 47 44 41 38 36 33 31 28 25 21 19 19 18 17 15 14 14 12 11 9 8 6 6 6 7 8 8 9 9 13 12 12 9 9 9 10 12 13 15 17 17 14 13 14
52 50 49 48 47 44 41 39 36 34 31 28 24 22 20 19 20 18 16 15 14 13 12 10 8 8 7 7 9 9 9 11 13 10 9 9 11 12 15 15 16 18 19 19 17 18 15
53 51 51 50 49 47 44 42 39 37 34 30 26 23 22 20 19 18 18 18 17 14 13 13 10 10 9 9 10 10 11 11 12 11 11 13 12 12 14 14 14 15 16 15 15 16 16
53 52 51 50 49 48 47 44 42 40 37 32 30 26 23 23 21 19 20 19 20 16 15 14 12 11 12 13 13 14 14 14 15 13 12 12 11 10 12 12 15 13 11 12 13 11 13
53 52 51 50 50 49 48 46 44 42 40 34 31 28 25 24 23 23 20 20 20 19 15 15 13 12 13 12 14 15 16 17 16 16 14 12 11 11 12 13 10 10 12 11 9 10 11
53 51 51 51 50 50 49 47 46 44 42 37 32 30 27 25 25 23 23 21 20 20 18 17 16 15 13 13 13 13 13 13 13 13 13 13 11 12 10 12 15 14 11 12 13 14 14
53 51 50 50 50 49 49 48 47 45 43 40 36 32 29 25 27 24 24 23 21 20 18 17 15 14 13 13 12 11 12 13 13 12 13 13 13 11 12 13 13 12 11 15 15 16 15
52 51 50 49 49 49 49 48 47 45 44 41 37 35 30 28 26 27 25 25 22 21 19 18 17 16 15 14 13 13 15 14 14 13 13 12 14 15 15 16 17 15 15 16 13 16 22
50 50 49 49 49 49 48 48 47 46 45 42 39 36 32 29 26 27 26 24 23 23 21 19 16 18 16 15 14 16 15 15 14 15 14 14 13 14 13 15 18 14 14 14 19 23 24
48 49 48 49 48 48 47 47 47 45 45 43 39 37 34 31 28 29 28 28 25 25 23 21 19 17 17 15 16 15 15 14 14 15 15 17 17 15 15 15 16 16 19 22 24 23 25
Wind_Direction
320 325 325 322 322 289 248 234 229 226 228 232 234 237 239 242 247 251 255 257 258 258 258 257 253 247 240 243 250 263 271 270 266 265 262 259 255 252 250 254 257 251 254 258 257 258 256
305 312 321 325 328 314 253 230 223 222 227 230 232 236 238 242 247 252 255 257 257 256 256 254 249 241 239 242 260 267 271 270 268 264 263 258 254 255 254 257 255 259 261 260 258 260 255
299 294 302 312 312 305 277 228 218 218 220 223 230 232 236 242 248 255 257 255 251 247 246 242 235 229 234 244 258 268 272 273 270 264 262 261 260 259 259 263 260 262 264 265 262 259 255
278 280 284 289 286 274 259 245 229 219 219 223 227 229 234 242 253 261 256 245 240 238 238 235 238 237 239 251 263 271 275 276 278 269 263 264 261 261 263 265 268 266 261 262 260 268 259
269 270 267 268 266 258 250 233 226 226 228 231 231 232 236 244 261 267 248 233 228 226 227 233 233 232 243 255 258 279 279 281 282 272 275 267 264 265 272 270 270 269 263 265 266 266 267
264 257 258 259 253 249 247 243 238 237 239 241 239 236 240 248 270 274 225 201 209 219 220 224 227 226 240 249 263 281 282 288 291 286 272 281 274 272 278 278 268 272 272 266 269 265 269
259 255 255 253 251 250 248 246 244 245 246 249 245 242 247 251 268 282 212 211 225 219 197 204 210 205 233 258 264 281 298 293 297 300 290 288 287 284 283 278 274 274 272 272 272 270 265
254 253 252 252 250 248 246 245 244 245 246 249 249 250 252 250 253 292 205 212 211 208 207 204 228 244 251 260 269 280 289 293 301 309 299 291 299 288 287 289 286 283 281 278 271 274 271
252 252 251 250 248 246 245 243 242 244 246 251 251 254 255 251 244 226 168 207 211 205 204 235 239 254 262 250 265 275 285 294 299 309 302 286 291 298 296 295 293 289 284 280 275 275 269
250 250 248 248 247 245 243 241 241 242 244 247 248 250 254 240 211 224 209 226 206 203 208 249 262 267 278 258 271 281 282 288 303 303 302 290 300 303 305 300 298 295 288 285 280 275 269
250 249 246 244 244 242 240 239 239 237 240 241 241 238 237 207 205 205 232 225 203 206 215 243 260 277 287 260 270 297 304 292 296 304 314 302 303 313 314 313 310 298 299 290 282 274 271
248 247 243 242 241 239 236 234 234 237 236 235 234 231 231 217 210 217 232 197 187 212 238 246 264 287 270 302 295 301 323 313 307 315 313 302 304 317 312 323 315 309 310 302 286 272 267
246 245 241 240 238 235 233 232 232 233 233 233 233 231 226 217 217 228 219 195 211 193 236 240 270 291 299 306 312 319 330 345 328 326 332 322 315 325 332 331 331 331 326 317 308 294 278
244 242 239 238 236 232 231 230 229 230 231 234 233 229 219 222 221 226 210 216 209 226 223 236 263 295 292 327 314 321 301 315 338 328 324 335 319 333 329 333 325 328 336 327 309 298 291
241 239 236 235 233 231 230 229 229 230 232 234 230 222 223 225 226 224 218 230 220 223 214 226 245 256 291 316 314 328 329 310 326 337 333 334 314 326 331 331 331 329 336 322 309 311 288
238 237 234 233 232 230 229 227 228 229 230 231 224 224 226 228 228 223 225 227 223 225 219 233 235 263 281 309 320 328 316 312 313 330 325 325 316 324 328 337 342 345 331 327 319 313 311
236 235 232 231 230 228 227 227 227 227 227 228 223 222 225 229 222 223 222 225 222 220 224 230 236 254 281 297 300 309 319 326 322 323 330 324 320 319 328 333 327 337 343 336 311 296 288
235 232 230 229 228 227 226 226 225 224 224 222 222 225 225 220 221 223 217 218 224 219 230 241 242 255 266 284 298 302 304 317 319 319 323 317 315 317 318 314 314 327 340 343 329 309 282
233 231 229 227 226 225 225 224 223 222 221 220 224 226 226 220 221 226 225 224 226 225 230 237 245 254 266 274 289 284 305 302 320 320 318 316 313 323 328 331 324 322 318 324 316 305 283
230 229 227 225 224 224 223 223 222 221 220 221 223 226 229 225 227 220 221 224 225 229 233 238 244 255 273 281 285 284 292 303 312 312 313 297 299 294 297 306 312 309 307 307 303 296 292
229 227 226 224 223 222 222 222 221 220 219 220 224 228 226 228 229 224 225 225 223 227 235 234 251 254 260 279 289 283 287 302 308 314 314 313 302 301 299 300 300 299 300 300 290 284 285
226 225 224 223 221 221 221 221 219 218 218 220 223 225 227 227 222 222 226 228 223 231 229 239 245 246 260 268 273 279 285 292 289 296 304 308 303 309 306 298 299 301 301 300 296 294 291
224 223 222 221 221 219 219 219 218 218 217 221 223 225 225 227 224 225 231 228 227 227 238 237 239 252 264 270 277 281 280 281 280 280 290 295 299 306 302 310 312 312 304 307 304 317 308
223 221 221 220 219 218 218 218 218 217 217 221 223 223 226 229 227 230 229 229 228 228 233 239 242 253 266 276 288 290 289 283 277 274 270 281 289 299 299 313 316 299 312 318 324 316 316
220 220 219 218 217 217 217 217 217 217 217 220 222 223 226 229 228 230 228 229 228 232 238 240 247 256 259 278 289 297 296 296 283 274 261 262 279 297 300 300 301 300 301 302 308 301 306
218 218 217 216 216 216 216 216 216 216 217 219 222 224 226 226 232 229 228 229 230 232 240 244 249 250 263 274 282 280 284 286 286 282 283 257 274 284 293 296 296 299 303 304 302 296 305
216 215 215 214 214 214 214 215 215 216 216 218 221 222 225 228 232 227 230 229 230 233 239 241 243 253 261 268 273 275 281 281 278 274 267 267 273 271 282 289 294 292 302 303 294 302 310
213 214 214 213 213 213 214 214 215 216 216 217 220 221 224 227 232 230 230 230 231 234 236 240 247 255 258 264 269 274 278 276 276 273 271 264 266 275 278 286 289 291 304 302 299 304 305
212 212 212 212 211 212 212 213 214 215 215 216 220 221 224 227 231 232 233 233 234 234 235 239 246 249 250 261 269 277 279 275 268 276 274 271 264 273 268 283 289 290 293 297 302 299 304